FW0663 Weather Reports


time (UTC)temp
F
wind
direction
speed
knots
gust
knots
rain 1hr
in
rain 24hr
in
rain mn
in
humidity
%
barometer
mb
20260831191534 76 328 0.9 4.3 0.00 0.00 0.00 22 1012.4
20260831190013 75 341 1.7 7.0 0.00 0.00 0.00 23 1012.6
20260831184509 73 43 0.9 4.3 0.00 0.00 0.00 26 1013.0
20260831183004 72 286 0.9 4.3 0.00 0.00 0.00 24 1013.3
20260831181501 70 252 0.9 3.5 0.00 0.00 0.00 27 1013.6
20260831180058 69 60 0.9 3.5 0.00 0.00 0.00 27 1013.9
20260831174553 67 345 1.7 4.3 0.00 0.00 0.00 32 1014.2
20260831173049 65 277 1.7 4.3 0.00 0.00 0.00 30 1014.3
20260831171545 63 240 0.0 3.5 0.00 0.00 0.00 36 1014.6
20260831170042 62 242 0.0 1.7 0.00 0.00 0.00 38 1014.8
20260831164537 61 317 0.0 2.6 0.00 0.00 0.00 34 1015.0
20260831163035 60 296 0.0 1.7 0.00 0.00 0.00 36 1015.1
20260831161533 58 153 0.0 1.7 0.00 0.00 0.00 40 1015.4
20260831160030 56 82 0.0 3.5 0.00 0.00 0.00 46 1015.6
20260831154538 54 74 0.0 2.6 0.00 0.00 0.00 48 1015.8
20260831153024 52 84 0.0 3.5 0.00 0.00 0.00 48 1015.9
20260831151525 50 76 0.0 2.6 0.00 0.00 0.00 54 1016.1
20260831150014 48 87 0.0 1.7 0.00 0.00 0.00 54 1016.1
20260831144514 45 83 0.0 2.6 0.00 0.00 0.00 61 1016.1
20260831143012 44 100 0.0 2.6 0.00 0.00 0.00 63 1016.1
20260831141513 42 115 0.9 2.6 0.00 0.00 0.00 62 1016.0
20260831140010 40 157 0.0 0.0 0.00 0.00 0.00 65 1016.1
20260831134509 40 157 0.0 0.0 0.00 0.00 0.00 63 1016.1
20260831133008 41 117 0.0 0.0 0.00 0.00 0.00 64 1016.1
20260831131506 41 91 0.0 1.7 0.00 0.00 0.00 61 1016.0
20260831130005 40 131 0.0 1.7 0.00 0.00 0.00 64 1016.0
20260831124510 41 113 0.0 2.6 0.00 0.00 0.00 62 1016.2
20260831123002 41 107 0.9 2.6 0.00 0.00 0.00 63 1016.2
20260831121609 41 135 0.0 1.7 0.00 0.00 0.00 62 1016.3
20260831120058 42 127 0.9 1.7 0.00 0.00 0.00 62 1016.4
20260831114556 42 127 0.0 0.0 0.00 0.00 0.00 60 1016.4
20260831113054 42 126 0.0 1.7 0.00 0.00 0.00 61 1016.5
20260831111554 42 142 0.0 1.7 0.00 0.00 0.00 63 1016.5
20260831110050 43 99 0.9 2.6 0.00 0.00 0.00 58 1016.7
20260831104549 43 128 0.0 1.7 0.00 0.00 0.00 59 1016.7
20260831103052 43 110 0.0 1.7 0.00 0.00 0.00 60 1016.8
20260831101557 43 115 0.9 2.6 0.00 0.00 0.00 59 1016.7
20260831100100 43 101 0.0 0.0 0.00 0.00 0.00 65 1016.7
20260831094539 44 98 0.0 0.0 0.00 0.00 0.00 59 1016.8
20260831093045 45 115 0.0 0.0 0.00 0.00 0.00 58 1016.8
20260831091537 45 105 0.0 0.0 0.00 0.00 0.00 56 1016.9
20260831090033 45 129 0.0 0.0 0.00 0.00 0.00 55 1016.9
20260831084531 47 120 0.0 0.0 0.00 0.00 0.00 55 1017.1
20260831083030 46 123 0.0 0.0 0.00 0.00 0.00 54 1017.1
20260831081534 47 111 0.0 0.0 0.00 0.00 0.00 55 1017.0
20260831080025 48 111 0.0 0.0 0.00 0.00 0.00 52 1017.1
20260831074528 48 119 0.0 0.0 0.00 0.00 0.00 53 1017.2
20260831073024 48 123 0.0 0.0 0.00 0.00 0.00 55 1017.1
20260831071521 48 112 0.0 0.0 0.00 0.00 0.00 54 1017.1
20260831070020 48 96 0.0 0.0 0.00 0.00 0.00 52 1017.1
20260831064519 50 96 0.0 0.0 0.00 0.00 0.00 52 1017.1
20260831063022 49 121 0.0 0.9 0.00 0.00 0.00 51 1017.0
20260831061518 49 106 0.0 1.7 0.00 0.00 0.00 55 1016.9
20260831060020 49 106 0.0 1.7 0.00 0.00 0.00 54 1016.9
20260831054517 50 103 0.0 1.7 0.00 0.00 0.00 55 1017.0
20260831053039 50 97 0.9 1.7 0.00 0.00 0.00 55 1017.0
20260831051517 50 105 0.0 0.9 0.00 0.00 0.00 51 1017.0
20260831050016 51 118 0.0 1.7 0.00 0.00 0.00 53 1017.0
20260831044516 52 139 0.0 1.7 0.00 0.00 0.00 53 1017.0
20260831043015 54 99 0.0 1.7 0.00 0.00 0.00 51 1017.0
20260831041515 56 90 0.0 0.0 0.00 0.00 0.00 39 1016.9
20260831040015 57 90 0.0 0.0 0.00 0.00 0.00 44 1016.9
20260831034514 60 90 0.0 0.0 0.00 0.00 0.00 39 1016.8
20260831033027 64 215 0.0 0.9 0.00 0.00 0.00 36 1016.6
20260831031513 65 236 0.0 1.7 0.00 0.00 0.00 29 1016.5
20260831030013 67 247 0.0 1.7 0.00 0.00 0.00 24 1016.3
20260831024512 69 299 0.0 1.7 0.00 0.00 0.00 26 1016.2
20260831023018 72 307 0.0 1.7 0.00 0.00 0.00 23 1016.1
20260831021514 73 302 0.0 1.7 0.00 0.00 0.00 21 1016.1
20260831020011 76 257 0.0 2.6 0.00 0.00 0.00 20 1016.2
20260831014509 77 286 0.0 1.7 0.00 0.00 0.00 20 1016.3
20260831013008 78 271 0.0 0.0 0.00 0.00 0.00 18 1016.4
20260831011507 78 206 0.0 1.7 0.00 0.00 0.00 15 1016.4
20260831010005 78 333 1.7 3.5 0.00 0.00 0.00 14 1016.6
20260831004504 77 301 0.0 3.5 0.00 0.00 0.00 16 1016.8
20260831003002 77 302 2.6 6.1 0.00 0.00 0.00 16 1016.9
20260831001600 77 333 1.7 5.2 0.00 0.00 0.00 18 1017.0
20260831000059 78 302 2.6 6.1 0.00 0.00 0.00 15 1017.1
20260830234609 77 323 1.7 4.3 0.00 0.00 0.00 14 1017.3
20260830233055 77 355 1.7 3.5 0.00 0.00 0.00 12 1017.5
20260830231551 77 317 0.9 6.1 0.00 0.00 0.00 12 1017.8
20260830230049 76 327 3.5 6.1 0.00 0.00 0.00 10 1018.0
20260830224546 76 273 0.9 6.1 0.00 0.00 0.00 11 1018.1
20260830223043 75 331 2.6 5.2 0.00 0.00 0.00 16 1018.3
20260830221546 74 228 1.7 6.1 0.00 0.00 0.00 22 1018.4
20260830220046 74 72 0.0 5.2 0.00 0.00 0.00 22 1018.7
20260830214541 74 234 1.7 4.3 0.00 0.00 0.00 23 1018.9
20260830213043 73 75 1.7 7.0 0.00 0.00 0.00 24 1019.2
20260830211549 73 271 0.9 4.3 0.00 0.00 0.00 26 1019.4
20260830210047 71 360 1.7 8.7 0.00 0.00 0.00 27 1019.6
20260830204524 71 336 1.7 6.1 0.00 0.00 0.00 26 1019.6
20260830203037 72 319 1.7 4.3 0.00 0.00 0.00 27 1019.9
20260830201521 71 80 0.9 5.2 0.00 0.00 0.00 27 1020.0
20260830200016 69 18 1.7 4.3 0.00 0.00 0.00 33 1020.0
20260830194514 69 355 3.5 8.7 0.00 0.00 0.00 32 1020.3
20260830193017 67 143 0.9 3.5 0.00 0.00 0.00 36 1020.4